Stündliche Wetter Holovkove

Heute, 21 Juni, Montag

Zeit Temperatur Niederschläge Wind Luftdruck Luftfeuchtigkeit
00:00 +20°C° 0 mm 2 m/S 750 mmHg 86%
01:00 +20°C° 0 mm 2 m/S 750 mmHg 87%
02:00 +21°C° 0 mm 1 m/S 750 mmHg 88%
03:00 +21°C° 0 mm 1 m/S 750 mmHg 87%
04:00 +21°C° 0 mm 1 m/S 750 mmHg 87%
05:00 +22°C° 0 mm 1 m/S 750 mmHg 86%
06:00 +23°C° 0 mm 1 m/S 750 mmHg 80%
07:00 +25°C° 0 mm 2 m/S 750 mmHg 74%
08:00 +27°C° 0 mm 2 m/S 751 mmHg 68%
09:00 +28°C° 0 mm 2 m/S 751 mmHg 65%
10:00 +29°C° 0 mm 2 m/S 751 mmHg 61%
11:00 +30°C° 0 mm 3 m/S 751 mmHg 58%
12:00 +31°C° 0 mm 3 m/S 751 mmHg 56%
13:00 +31°C° 0 mm 3 m/S 751 mmHg 55%
14:00 +33°C° 0 mm 3 m/S 751 mmHg 53%
15:00 +33°C° 0 mm 4 m/S 751 mmHg 55%
16:00 +32°C° 0 mm 4 m/S 751 mmHg 57%
17:00 +32°C° 0 mm 4 m/S 751 mmHg 60%
18:00 +29°C° 0 mm 4 m/S 751 mmHg 62%
19:00 +27°C° 0 mm 3 m/S 751 mmHg 65%
20:00 +25°C° 0 mm 3 m/S 751 mmHg 68%
21:00 +25°C° 0 mm 3 m/S 751 mmHg 69%
22:00 +23°C° 0 mm 4 m/S 750 mmHg 70%
23:00 +23°C° 0 mm 4 m/S 750 mmHg 71%

Morgen, 22 Juni, Dienstag

Zeit Temperatur Niederschläge Wind Luftdruck Luftfeuchtigkeit
00:00 +22°C° 0.2 mm 4 m/S 750 mmHg 72%
01:00 +22°C° 0.2 mm 4 m/S 750 mmHg 74%
02:00 +21°C° 0.2 mm 4 m/S 750 mmHg 76%
03:00 +21°C° 0 mm 4 m/S 750 mmHg 75%
04:00 +21°C° 0 mm 4 m/S 750 mmHg 75%
05:00 +21°C° 0 mm 4 m/S 750 mmHg 74%
06:00 +22°C° 0 mm 4 m/S 750 mmHg 70%
07:00 +25°C° 0 mm 5 m/S 750 mmHg 66%
08:00 +26°C° 0 mm 5 m/S 751 mmHg 62%
09:00 +27°C° 0 mm 5 m/S 751 mmHg 58%
10:00 +29°C° 0 mm 6 m/S 751 mmHg 55%
11:00 +30°C° 0 mm 6 m/S 751 mmHg 52%
12:00 +32°C° 0 mm 6 m/S 751 mmHg 48%
13:00 +32°C° 0 mm 6 m/S 751 mmHg 44%
14:00 +33°C° 0 mm 6 m/S 751 mmHg 41%
15:00 +32°C° 0 mm 5 m/S 751 mmHg 43%
16:00 +32°C° 0 mm 5 m/S 751 mmHg 46%
17:00 +32°C° 0 mm 4 m/S 751 mmHg 48%
18:00 +29°C° 0 mm 4 m/S 751 mmHg 54%
19:00 +27°C° 0 mm 3 m/S 751 mmHg 59%
20:00 +25°C° 0 mm 2 m/S 751 mmHg 65%
21:00 +25°C° 0 mm 2 m/S 751 mmHg 66%
22:00 +24°C° 0 mm 2 m/S 751 mmHg 68%
23:00 +24°C° 0 mm 3 m/S 751 mmHg 69%

übermorgen, 23 Juni, Mittwoch

Zeit Temperatur Niederschläge Wind Luftdruck Luftfeuchtigkeit
00:00 +24°C° 0 mm 3 m/S 751 mmHg 72%
01:00 +22°C° 0 mm 3 m/S 751 mmHg 74%
02:00 +22°C° 0 mm 3 m/S 750 mmHg 76%
03:00 +22°C° 0 mm 3 m/S 750 mmHg 78%
04:00 +21°C° 0 mm 3 m/S 751 mmHg 79%
05:00 +21°C° 0 mm 2 m/S 751 mmHg 80%
06:00 +22°C° 0 mm 3 m/S 751 mmHg 77%
07:00 +23°C° 0 mm 4 m/S 751 mmHg 75%
08:00 +25°C° 0 mm 5 m/S 751 mmHg 72%
09:00 +27°C° 0 mm 5 m/S 751 mmHg 67%
10:00 +29°C° 0 mm 5 m/S 752 mmHg 62%
11:00 +32°C° 0 mm 6 m/S 752 mmHg 57%
12:00 +32°C° 0 mm 5 m/S 752 mmHg 54%
13:00 +33°C° 0 mm 5 m/S 752 mmHg 52%
14:00 +34°C° 0 mm 4 m/S 752 mmHg 50%
15:00 +33°C° 0 mm 3 m/S 752 mmHg 52%
16:00 +33°C° 0 mm 3 m/S 752 mmHg 54%
17:00 +32°C° 0 mm 2 m/S 752 mmHg 56%
18:00 +30°C° 0 mm 3 m/S 752 mmHg 61%
19:00 +29°C° 0 mm 3 m/S 752 mmHg 65%
20:00 +27°C° 0 mm 3 m/S 752 mmHg 70%
21:00 +26°C° 0.6 mm 3 m/S 752 mmHg 73%
22:00 +26°C° 0.6 mm 3 m/S 752 mmHg 76%
23:00 +25°C° 0.6 mm 3 m/S 752 mmHg 79%

24 Juni, Donnerstag

Zeit Temperatur Niederschläge Wind Luftdruck Luftfeuchtigkeit
00:00 +25°C° 0 mm 3 m/S 752 mmHg 79%
01:00 +24°C° 0 mm 3 m/S 752 mmHg 80%
02:00 +24°C° 0 mm 3 m/S 752 mmHg 81%
03:00 +22°C° 0 mm 3 m/S 752 mmHg 82%
04:00 +22°C° 0 mm 3 m/S 752 mmHg 84%
05:00 +22°C° 0 mm 3 m/S 752 mmHg 85%
06:00 +25°C° 0 mm 4 m/S 752 mmHg 79%
07:00 +26°C° 0 mm 4 m/S 752 mmHg 73%
08:00 +28°C° 0 mm 4 m/S 752 mmHg 67%
09:00 +29°C° 0 mm 4 m/S 752 mmHg 63%
10:00 +30°C° 0 mm 4 m/S 752 mmHg 59%
11:00 +33°C° 0 mm 4 m/S 752 mmHg 55%
12:00 +33°C° 0 mm 4 m/S 752 mmHg 54%
13:00 +34°C° 0 mm 4 m/S 752 mmHg 53%
14:00 +34°C° 0 mm 4 m/S 752 mmHg 51%
15:00 +33°C° 0.4 mm 4 m/S 752 mmHg 57%
16:00 +32°C° 0.4 mm 4 m/S 752 mmHg 62%
17:00 +30°C° 0.4 mm 4 m/S 752 mmHg 67%
18:00 +28°C° 0.4 mm 4 m/S 752 mmHg 71%
19:00 +27°C° 0.4 mm 4 m/S 752 mmHg 75%
20:00 +25°C° 0.4 mm 4 m/S 753 mmHg 79%
21:00 +25°C° 0.6 mm 4 m/S 753 mmHg 80%
22:00 +24°C° 0.6 mm 3 m/S 753 mmHg 81%
23:00 +24°C° 0.6 mm 3 m/S 753 mmHg 82%

25 Juni, Freitag

Zeit Temperatur Niederschläge Wind Luftdruck Luftfeuchtigkeit
00:00 +23°C° 0.1 mm 2 m/S 753 mmHg 84%
01:00 +23°C° 0.1 mm 2 m/S 753 mmHg 86%
02:00 +23°C° 0.1 mm 2 m/S 753 mmHg 88%
03:00 +23°C° 0 mm 2 m/S 752 mmHg 87%
04:00 +22°C° 0 mm 3 m/S 752 mmHg 87%
05:00 +22°C° 0 mm 3 m/S 752 mmHg 86%
06:00 +25°C° 0 mm 3 m/S 752 mmHg 76%
07:00 +27°C° 0 mm 3 m/S 752 mmHg 67%
08:00 +29°C° 0 mm 3 m/S 752 mmHg 57%
09:00 +30°C° 0 mm 3 m/S 752 mmHg 54%
10:00 +31°C° 0 mm 3 m/S 751 mmHg 51%
11:00 +33°C° 0 mm 3 m/S 751 mmHg 47%
12:00 +34°C° 0 mm 4 m/S 751 mmHg 45%
13:00 +35°C° 0 mm 4 m/S 751 mmHg 42%
14:00 +35°C° 0 mm 4 m/S 751 mmHg 39%
15:00 +35°C° 0 mm 4 m/S 751 mmHg 42%
16:00 +34°C° 0 mm 4 m/S 751 mmHg 44%
17:00 +34°C° 0 mm 3 m/S 751 mmHg 46%
18:00 +31°C° 0 mm 3 m/S 751 mmHg 51%
19:00 +29°C° 0 mm 3 m/S 750 mmHg 56%
20:00 +27°C° 0 mm 3 m/S 750 mmHg 61%
21:00 +26°C° 0 mm 3 m/S 750 mmHg 64%
22:00 +26°C° 0 mm 2 m/S 750 mmHg 68%
23:00 +25°C° 0 mm 2 m/S 750 mmHg 71%

26 Juni, Samstag

Zeit Temperatur Niederschläge Wind Luftdruck Luftfeuchtigkeit
00:00 +25°C° 0 mm 2 m/S 750 mmHg 73%
01:00 +24°C° 0 mm 2 m/S 750 mmHg 76%
02:00 +24°C° 0 mm 2 m/S 750 mmHg 78%
03:00 +24°C° 0 mm 2 m/S 750 mmHg 80%
04:00 +24°C° 0 mm 2 m/S 750 mmHg 81%
05:00 +24°C° 0 mm 2 m/S 750 mmHg 83%
06:00 +26°C° 0 mm 2 m/S 750 mmHg 77%
07:00 +27°C° 0 mm 2 m/S 750 mmHg 71%
08:00 +29°C° 0 mm 3 m/S 750 mmHg 64%
09:00 +30°C° 0 mm 3 m/S 750 mmHg 60%
10:00 +31°C° 0 mm 3 m/S 751 mmHg 56%
11:00 +33°C° 0 mm 3 m/S 751 mmHg 52%
12:00 +34°C° 0 mm 2 m/S 750 mmHg 49%
13:00 +34°C° 0 mm 2 m/S 750 mmHg 47%
14:00 +35°C° 0 mm 2 m/S 750 mmHg 44%
15:00 +35°C° 0 mm 2 m/S 750 mmHg 44%
16:00 +35°C° 0 mm 2 m/S 749 mmHg 44%
17:00 +35°C° 0 mm 2 m/S 749 mmHg 44%
18:00 +32°C° 0.1 mm 2 m/S 749 mmHg 52%
19:00 +29°C° 0.1 mm 2 m/S 749 mmHg 59%
20:00 +27°C° 0.1 mm 2 m/S 749 mmHg 66%
21:00 +26°C° 0.2 mm 2 m/S 749 mmHg 70%
22:00 +26°C° 0.2 mm 2 m/S 749 mmHg 75%
23:00 +25°C° 0.2 mm 2 m/S 749 mmHg 79%
Mehr zeigen

Wir brauchen deine Erlaubnis

Meteoprog und unser Service Anbieter werden persönliche Daten aufbewahren, so wie Cookies, Geräte Bezeichnung oder ähnliche Technologien von deinem Gerät und Prozess, so wie Persönliche Daten Inhalte und Werbungen, genauso wie social Media und den Verkehr zu analysieren.

  • Aufbewahrung und/oder Zugang zu deiner Geräte Informationen.

    Cookies, Geräte Bezeichnung oder andere Informationen, können aufbewahrt oder Zugang zu deinem Gerät erhalten, für den Grund, der oben angegeben wird.

  • Personalisierte Werbung und Inhalte, Messungen, Einblick in das Publikum und Produkt Entwicklung.

    Werbungen und Inhalte können personalisiert werden, basierend auf ein Profil. Mehr Daten können besser personalisierte Werbungen und Inhalte hinzufügen. Werbung und Inhalte können gezeigt und gemessen werden. Einblicke über das Publikum, welche die Werbung gesehen haben und den Inhalt, können abgeleitet werden. So wie Daten können genutzt werden, um es zu verbessern oder die Benutzer Erfahrung zu verbessern das System und die Software.

Wenn du “Ich stimme zu” klickst, erlaubst du uns, die Cookies zu benutzen die Geräte Bezeichnung, den Web oder ähnliche Technologien zu benutzen. Deine Settings, können in deinem Gerät bei deinem Browser geändert werden.

Für den bestimmten Zweck, berechtigten Interessen beruhen darauf, mehr als auf den Inhalt. Du kannst mehr darüber in unseren Privaten und Cookie Politik lesen.